📊 Raw Sensor Data
Showing records 42251 to 42275 of 84,998 total
| ID | Distance (ft) | Battery V | Battery A | Int Temp (°F) | Int Humid (%) | Ext Temp (°F) | Solar V | RSSI | SNR | Time Stamp |
|---|---|---|---|---|---|---|---|---|---|---|
| 42760 | 15.3 | 3.99 | 0 | 79 | 53 | 73 | 4.50 | -70 | 8 | 06/06/2025 08:00 PM |
| 42759 | 15.4 | 4.06 | 7 | 83 | 52 | 77 | 4.50 | -74 | 7 | 06/06/2025 07:45 PM |
| 42758 | 15.4 | 4.01 | -17 | 86 | 51 | 79 | 4.50 | -74 | 8 | 06/06/2025 07:30 PM |
| 42757 | 15.4 | 4.08 | 0 | 89 | 51 | 82 | 4.50 | -71 | 7 | 06/06/2025 07:15 PM |
| 42756 | 15.4 | 4.06 | 0 | 91 | 50 | 83 | 4.50 | -71 | 8 | 06/06/2025 07:00 PM |
| 42755 | 15.4 | 4.07 | 27 | 93 | 49 | 84 | 4.50 | -70 | 8 | 06/06/2025 06:45 PM |
| 42754 | 15.4 | 4.02 | 0 | 93 | 49 | 86 | 5.10 | -71 | 8 | 06/06/2025 06:30 PM |
| 42753 | 15.4 | 4.02 | 0 | 94 | 49 | 86 | 5.10 | -71 | 7 | 06/06/2025 06:15 PM |
| 42752 | 15.4 | 4.12 | 0 | 95 | 48 | 87 | 5.10 | -71 | 8 | 06/06/2025 06:00 PM |
| 42751 | 15.5 | 4.02 | 0 | 95 | 48 | 88 | 5.10 | -72 | 8 | 06/06/2025 05:45 PM |
| 42750 | 15.5 | 4.02 | 0 | 98 | 47 | 90 | 5.10 | -71 | 8 | 06/06/2025 05:15 PM |
| 42749 | 15.5 | 4.02 | 0 | 100 | 45 | 93 | 5.10 | -71 | 8 | 06/06/2025 05:00 PM |
| 42748 | 15.5 | 4.02 | 0 | 98 | 46 | 88 | 5.10 | -72 | 7 | 06/06/2025 04:45 PM |
| 42747 | 15.5 | 4.02 | 0 | 99 | 46 | 90 | 5.10 | -71 | 8 | 06/06/2025 04:30 PM |
| 42746 | 15.5 | 4.12 | 0 | 98 | 46 | 89 | 5.10 | -71 | 7 | 06/06/2025 04:15 PM |
| 42745 | 15.5 | 4.02 | 0 | 101 | 44 | 88 | 5.10 | -71 | 8 | 06/06/2025 04:00 PM |
| 42744 | 15.5 | 4.02 | 0 | 101 | 43 | 94 | 5.10 | -69 | 8 | 06/06/2025 03:45 PM |
| 42743 | 15.5 | 4.02 | 0 | 100 | 43 | 90 | 5.10 | -69 | 8 | 06/06/2025 03:30 PM |
| 42742 | 15.5 | 4.02 | 0 | 99 | 43 | 93 | 5.10 | -69 | 8 | 06/06/2025 03:15 PM |
| 42741 | 15.5 | 4.12 | 0 | 98 | 42 | 86 | 5.10 | -68 | 8 | 06/06/2025 03:00 PM |
| 42740 | 15.5 | 4.02 | 0 | 98 | 42 | 91 | 5.10 | -70 | 8 | 06/06/2025 02:45 PM |
| 42739 | 15.5 | 4.13 | 0 | 97 | 41 | 88 | 5.10 | -69 | 8 | 06/06/2025 02:30 PM |
| 42738 | 15.5 | 4.07 | 0 | 95 | 41 | 88 | 5.10 | -69 | 8 | 06/06/2025 02:15 PM |
| 42737 | 15.5 | 4.02 | 0 | 93 | 41 | 87 | 5.10 | -70 | 7 | 06/06/2025 02:00 PM |
| 42736 | 15.5 | 4.14 | 0 | 92 | 41 | 82 | 5.10 | -69 | 7 | 06/06/2025 01:45 PM |